Regional Weather Roundup
Issued by NWS

Home | Current Version | Previous Version | Text Only | Print | Product List | Glossary On
Versions: 1 2 3 4 5 6 7 8 9 10 11 12 13 14 15 16 17 18 19 20 21 22 23 24 25 26 27 28 29 30 31 32 33 34 35 36 37 38 39 40 41 42 43 44 45 46 47 48 49 50
000
ASUS44 KEWX 040911
RWRTX
SOUTH TEXAS REGIONAL WEATHER ROUNDUP
NATIONAL WEATHER SERVICE AUSTIN/SAN ANTONIO TX
300 AM CST SUN DEC 04 2016

NOTE: "FAIR" INDICATED FEW OR NO CLOUDS BELOW 12,000 FEET WITH NO
SIGNIFICANT WEATHER AND/OR OBSTRUCTIONS TO VISIBILITY.

* - THESE STATIONS ARE NOT NWS OR FAA STATIONS...AND ARE NOT SUBJECT
    TO NWS AND FAA QUALITY CONTROL.

TXZ171-172-183>190-041000-
TEXAS HILL COUNTRY AND EDWARDS PLATEAU

CITY           SKY/WX    TMP DP  RH WIND       PRES   REMARKS
JUNCTION       LGT RAIN  48  47  96 N5        29.96R WCI  46
*LLANO         CLOUDY    50  50 100 CALM      29.96F FOG
BURNET         CLOUDY    49  47  93 N6        29.95F WCI  46
*HORSESHOE BAY CLOUDY    49  49  97 NW3       29.95F
*KERRVILLE     CLOUDY    49  47  95 N5        29.93F WCI  47
*FREDERICKSBRG CLOUDY    47  46  95 N3        29.94F
*ROCKSPRINGS   LGT RAIN  46  46 100 N3        29.97R
*BOERNE STAGE  CLOUDY    46  46 100 N8        29.92F WCI  42
*CASTROVILLE   CLOUDY    53  51  94 CALM      29.94S
HONDO          CLOUDY    53  50  89 NE9       29.90F
*UVALDE        RAIN      51  50  97 CALM      29.92S
DEL RIO        CLOUDY    51  49  92 NW8       29.95S
LAUGHLIN AFB   CLOUDY    51  46  84 NW9       29.94F
CARRIZO SPRGS  DRIZZLE   54  54 100 N6        29.88F
*EAGLE PASS    CLOUDY    52  50  93 NW8G15    29.93F FOG
$$

TXZ173-191>194-202-209-217>225-228-041000-
CENTRAL AND SOUTH CENTRAL TEXAS

CITY           SKY/WX    TMP DP  RH WIND       PRES   REMARKS
GEORGETOWN     CLOUDY    48  46  93 N9        29.95F WCI  44
AUSTIN/BERGSTM CLOUDY    52  50  93 N8        29.93R
AUSTIN/MABRY   CLOUDY    50  49  96 VRB6      29.95F WCI  48
*AUSTIN/EXEC   CLOUDY    50  50 100 N12       29.94S FOG     WCI  46
*LAGO VISTA    DRIZZLE   49  48  97 NW6       29.95S WCI  47
SAN MARCOS     CLOUDY    50  48  93 N12       29.95S WCI  46
NEW BRAUNFELS  CLOUDY    52  49  89 N12       29.91F
RANDOLPH AFB   CLOUDY    51  51 100 N8        29.91F
PT SAN ANTONIO CLOUDY    53  49  89 N8        29.89F
SAN ANTONIO    CLOUDY    52  49  89 N10       29.91F
STINSON FIELD  CLOUDY    54  49  83 N9        29.89F
*PLEASANTON    CLOUDY    52  51  94 NE3       29.92R
*LA GRANGE     LGT RAIN  52  51  95 N8        29.91R
*GIDDINGS      CLOUDY    49  48  97 N9        29.96R WCI  45
*GONZALES      LGT RAIN  52  52 100 N9        29.91F
$$

TXZ163>164-176>182-195>201-210>213-226-227-235-041000-
SOUTHEAST TEXAS

CITY           SKY/WX    TMP DP  RH WIND       PRES   REMARKS
COLLEGE STN    CLOUDY    50  49  96 N10       29.91S WCI  46
*BRYAN         CLOUDY    49  49 100 MISG      29.93R
*CALDWELL      NOT AVBL
*CROCKETT      CLOUDY    48  46  93 N9        29.94S FOG     WCI  44
*BRENHAM       CLOUDY    52  51  98 N9        29.91R
HUNTSVILLE     CLOUDY    50  48  93 VRB5      29.90R WCI  48
CONROE         LGT RAIN  49  49 100 E16       29.80F FOG     WCI  43
HOUSTON BUSH   LGT RAIN  52  52 100 N12       29.92S FOG
HOUSTON HOBBY  RAIN      53  52  96 N10       29.87F
*HOUSTON SW AP LGT RAIN  52  51  98 N7        29.85F
PEARLAND       LGT RAIN  55  53  93 E10       29.88F
HOUSTON HOOKS  LGT RAIN  51  50  96 E12G26    29.83F
ELLINGTON FLD  RAIN      55  54  94 N9        29.89
SUGAR LAND     LGT RAIN  52  52 100 E13G21    29.81F
*HOUSTON EXEC    N/A     50  50 100 N10G22    29.88R WCI  46
*CLEVELAND MUN DRIZZLE   51  50  97 CALM      29.90F
*WHARTON       MOCLDY    52  51  97 NW12G18   29.85R
*COLUMBUS      CLOUDY    51  49  94 N9        29.90R
*EAGLE LAKE    CLOUDY    54  53  99 N10       29.87F
$$

TXZ214>216-236>238-041000-
THE UPPER TEXAS COAST

CITY           SKY/WX    TMP DP  RH WIND       PRES   REMARKS
*ORANGE        CLOUDY   N/A N/A N/A NW6       29.94R FOG
PORT ARTHUR    CLOUDY    53  51  93 N13       29.90R
GALVESTON      LGT RAIN  57  55  93 N15       29.89F FOG
ANGLETON       CLOUDY    54  53  97 NE13      29.82F
*BAY CITY      CLOUDY    54  54 100 NE12      29.81F
PALACIOS       CLOUDY    53  52  96 NE9       29.82S
$$

TXZ229>234-239>247-041000-
TEXAS COASTAL BEND AND RIO GRANDE PLAINS

CITY           SKY/WX    TMP DP  RH WIND       PRES   REMARKS
VICTORIA       CLOUDY    53  52  96 NW15      29.91R
*BEEVILLE      CLOUDY    47  47 100 N10       29.85F WCI  42
ROCKPORT         N/A    N/A N/A N/A MISG      29.87R
*PORT ARANSAS  CLOUDY    60  60  99 N18       29.84R
*PORT LAVACA   RAIN      54  54 100 NW13      29.89R
*INGLESIDE     CLOUDY    58  56  95 N20       29.85R
CORPUS CHRISTI CLOUDY    57  56  96 N16       29.84R THUNDER
CORPUS NAS     CLOUDY    59  59 100 N21G29    29.83R
*ROBSTOWN      TSTM      56  56 100 N15G21    29.84F
ALICE          HVY RAIN  54  54 100 N12G21    29.84F FOG
KINGSVILLE NAS CLOUDY    57  57 100 N13G24    29.83F
COTULLA        RAIN      55  52  89 NE14      29.83F
*FAITH RANCH   CLOUDY    55  55 100 N8        29.90S FOG
LAREDO         LGT RAIN  55  55 100 N6        29.87R
$$

TXZ248>255-041000-
DEEP SOUTH TEXAS

CITY           SKY/WX    TMP DP  RH WIND       PRES   REMARKS
BROWNSVILLE    CLOUDY    71  70  96 N7        29.77S
PORT ISABEL    CLOUDY    73  72  96 NE10      29.75F FOG
*SOUTH PADRE     N/A     75  73  94 NE10      29.76F VSB<1/4
HARLINGEN      CLOUDY    70  70 100 NE6       29.76F FOG
*HEBBRONVILLE  LGT RAIN  54  54  98 N13       29.84F
MCALLEN        CLOUDY    65  59  81 NW10      29.82S
*WESLACO       CLOUDY    61  59  92 NW8       29.80S
FALFURRIAS     CLOUDY    57  56  94 NW12      29.85S
EDINBURG       CLOUDY    65  60  86 N9        29.82S
*ZAPATA        CLOUDY    56  56  99 N6        29.85R
$$

TXZ213>215-236>238-242>244-246-247-251-254-255-041000-
CMAN STATIONS

STATION/POSITION TIME  TEMP    WIND        PRES    WAVE
                       AIR SEA DIR/SP/G            HT/PER
                 (UTC) (F)     (DEG/KT/KT) (MB)    (FT/S)
SABINE PASS      0848   54 62  320/ 13/ 18 1013.1
SEA RIM ST PARK  0900   53     320/ 11/ 14 1014.0
NORTH JETTY/GLS  0848   55 63  330/ 16/ 19   N/A
EAGLE POINT      0848   54 61   20/  7/ 11 1011.8
MORGANS POINT    0848   53 64   10/  9/ 11 1012.7
MISSION/ARANSAS  0800   58                 1010.0
PORT O`CONNOR    0848   57      20/ 15/ 17 1009.3
PORT ARANSAS     0900   58 67  340/ 18/ 21 1010.2
MALAQUITE BEACH  0848   64 68  340/ 16/ 19 1010.1
BAFFIN BAY       0848   65 68  300/ 13/ 14 1009.8
PORT ISABEL      0848   74 77   10/  4/  6 1007.5
$$

GMZ080-GMZ150>470-041000-
OFFSHORE BUOY REPORTS

STATION/POSITION TIME  TEMP    WIND        PRES    WAVE
                       AIR SEA DIR/SP/G            HT/PER
                 (UTC) (F)     (DEG/KT/KT) (MB)    (FT/S)
20 E GALVESTON   0850   58 68  320/ 19/ 23 1011.8    4/ 8
90 E PT ARANSAS  0850   68 77   20/ 17/ 19 1010.4    6/ 8
35 NE PT MANSFLD 0850   73 75   70/ 19/ 23 1007.3    6/ 8
200 E PT ISABEL  0850   78 78  150/ 14/ 17 1009.2    7/ 8
$$




USA.gov is the U.S. government's official web portal to all federal, state and local government web resources and services.